Location: Cartignies
(50.0929°N, 3.8447°E)
Time: 13:31:51
(UTC+00:00)

Cosmos 1624 Rocket - Pass Details

Date: 12 January 2026
Orbit: 752 x 780 km, 74.0° (Epoch: 16 February)

Event Time Altitude Azimuth Distance (km) Brightness Sun altitude
Rises 16:59:53 0° 180° (S) 3,220 7.6 -8.3°
Reaches altitude 10° 17:02:21 10° 173° (S) 2,303 6.7 -8.7°
Maximum altitude 17:07:14 41° 104° (ESE) 1,108 4.5 -9.4°
Drops below altitude 10° 17:12:10 10° 36° (NE) 2,335 6.0 -10.1°
Enters shadow 17:12:47 - 34° (NNE) 2,556 6.2 -10.2°
